{"data":{"norad_id":68073,"intl_designator":"2026-042E","name":"STARLINK-37074","alt_names":[],"object_type":"PAYLOAD","status":"ACTIVE","operator":null,"country":"US","launch_date":"2026-03-04","launch_site_code":"AFETR","launch_vehicle":null,"mission":null,"orbit_class":"UNKNOWN","rcs_meters":null,"size_class":null,"mass_kg":null,"dimensions":null,"purposes":["comms"],"wikipedia_slug":null,"has_3d_model":false,"image_url":null,"decayed_at":null,"tle_current":{"epoch":"2026-05-24T20:04:45.500736Z","epoch_age_seconds":103341,"freshness":"FRESH","line1":"1 68073U 26042E   26144.83663774  .00016588  00000+0  50089-3 0  9991","line2":"2 68073  53.1584 184.3098 0001203  87.3283 272.7858 15.34405939 13974","mean_motion":15.34405939,"eccentricity":0.0001203,"inclination_deg":53.1584,"raan_deg":184.3098,"arg_perigee_deg":87.3283,"mean_anomaly_deg":272.7858,"bstar":0.00050089,"rev_number":1397,"period_min":93.847394838583,"perigee_km":461.86263734708,"apogee_km":463.50853926183,"semimajor_km":6840.8225883045,"source":"CELESTRAK","updated_at":"2026-05-25T13:38:21.817907Z"}}}